Location: Asheville, NC
(35.6000°N, 82.5500°W)
Time: 14:39:23
(UTC-04:00)

CUTE 1.7 + AOD 2 - Pass Details

Date: 09 January 2018
Orbit: 595 x 612 km, 97.6° (Epoch: 19 April)

Event Time Altitude Azimuth Distance (km) Brightness Sun altitude
Rises 18:09:03 0° 146° (SSE) 2,860 ? -7.2°
Reaches altitude 10° 18:11:21 10° 137° (SE) 1,960 ? -7.6°
Maximum altitude 18:15:13 34° 73° (ENE) 1,008 ? -8.3°
Drops below altitude 10° 18:19:05 10° 8° (N) 1,969 ? -9.1°
Sets 18:21:24 0° 359° (N) 2,875 ? -9.5°
